Home   Weather   Sperryville   Past weeks
Flag for USA

Past Weather in Sperryville, Virginia, USA — Yesterday and Last 2 Weeks

Now
54 °F

Low clouds.


Feels Like: 53 °F
Forecast: 65 / 41 °F
Wind: 3 mph from Southwest

Location: warren County Airport

Current Time: Oct 22, 2019 at 11:37:24 pm

Latest Report: Oct 22, 2019 at 10:35 pm


Visibility: 0 mi

Pressure: 29.88 "Hg

Humidity: 100%

Dew Point: 54 °F

Location of SperryvilleLocation

Past Weather in Sperryville — Graph

°F

Sperryville Temperature Yesterday

Maximum temperature yesterday: 68 °F (at 3:35 pm)
Minimum temperature yesterday: 50 °F (at 5:35 am)
Average temperature yesterday: 57 °F

High & Low Weather Summary for the Past Weeks

 TemperatureHumidityPressure
High73 °F (Oct 14, 3:15 pm)100% (Oct 7, 10:15 pm)30.31 "Hg (Oct 7, 10:15 pm)
Low32 °F (Oct 19, 5:35 am)27% (Oct 11, 3:15 pm)29.58 "Hg (Oct 16, 3:35 pm)
Average54 °F78%30.03 "Hg
* Reported Oct 7 10:15 pm — Oct 22 10:15 pm, Sperryville. Weather by CustomWeather, © 2019

Note: Actual official high and low records may vary slightly from our data, if they occured in-between our weather recording intervals... More about our weather records

Advertising

Sperryville Weather History for the Previous 24 Hours

Scroll right to see more
 ConditionsComfort  
Time TempWeatherWind HumidityBarometerVisibility
10:15 pm
Tue, Oct 22
55 °FLow clouds.3 mph100%29.88 "Hg0 mi
9:55 pm55 °FLow clouds.No wind100%29.88 "Hg1 mi
9:35 pm55 °FLow clouds.No wind100%29.87 "Hg0 mi
9:15 pm54 °FLow clouds.No wind100%29.87 "Hg0 mi
8:35 pm52 °FPassing clouds.No wind100%29.87 "Hg1 mi
8:15 pm54 °FClear.No wind100%29.87 "Hg7 mi
7:55 pm54 °FPassing clouds.No wind100%29.87 "Hg0 mi
7:35 pm54 °FPassing clouds.No wind100%29.86 "Hg1 mi
7:15 pm55 °FPartly cloudy.No wind100%29.85 "Hg10 mi
6:55 pm55 °FMostly cloudy.No wind100%29.84 "Hg10 mi
6:35 pm57 °FOvercast.No wind100%29.83 "Hg10 mi
6:15 pm57 °FPartly sunny.No wind100%29.82 "Hg10 mi
5:55 pm59 °FPartly sunny.3 mph100%29.80 "Hg10 mi
5:35 pm59 °FMostly cloudy.6 mph100%29.80 "Hg10 mi
5:15 pm59 °FCloudy.No wind100%29.79 "Hg10 mi
4:55 pm59 °FMore clouds than sun.3 mph100%29.79 "Hg10 mi
4:35 pm57 °FMore clouds than sun.3 mph100%29.79 "Hg10 mi
4:15 pm57 °FCloudy.No wind100%29.82 "Hg10 mi
3:55 pm57 °FCloudy.No wind100%29.82 "Hg7 mi
3:35 pm55 °FMostly cloudy.No wind100%29.82 "Hg2 mi
3:15 pm55 °FMostly cloudy.No wind100%29.83 "Hg1 mi
2:55 pm55 °FOvercast.No wind100%29.82 "Hg1 mi
2:35 pm55 °FMostly cloudy.No wind100%29.81 "Hg2 mi
2:15 pm55 °FMore clouds than sun.No wind100%29.81 "Hg4 mi
1:55 pm57 °FMore clouds than sun.5 mph94%29.84 "Hg3 mi
1:35 pm59 °FOvercast.6 mph88%29.81 "Hg7 mi
1:15 pm59 °FOvercast.5 mph88%29.80 "Hg10 mi
12:55 pm59 °FOvercast.9 mph88%29.82 "Hg10 mi
12:35 pm59 °FOvercast.9 mph82%29.84 "Hg10 mi
12:15 pm61 °FMostly cloudy.7 mph83%29.85 "Hg10 mi
11:55 am61 °FMostly cloudy.7 mph83%29.85 "Hg10 mi
11:35 am63 °FMostly cloudy.3 mph77%29.86 "Hg10 mi
11:15 am61 °FMostly cloudy.6 mph83%29.87 "Hg10 mi
10:35 am61 °FCloudy.6 mph83%29.89 "Hg10 mi
10:15 am59 °FMore clouds than sun.3 mph82%29.90 "Hg10 mi
9:55 am59 °FCloudy.7 mph82%29.91 "Hg10 mi
9:35 am59 °FMore clouds than sun.6 mph88%29.92 "Hg10 mi
9:15 am59 °FBroken clouds.6 mph82%29.91 "Hg10 mi
8:35 am59 °FMore clouds than sun.7 mph82%29.90 "Hg10 mi
7:55 am57 °FMore clouds than sun.5 mph88%29.92 "Hg10 mi
7:35 am57 °FOvercast.6 mph88%29.93 "Hg10 mi
7:15 am57 °FOvercast.9 mph88%29.93 "Hg10 mi
6:55 am57 °FMostly cloudy.8 mph88%29.94 "Hg10 mi
6:35 am55 °FOvercast.9 mph94%29.95 "Hg10 mi
6:15 am55 °FPassing clouds.No wind94%29.93 "Hg10 mi
5:55 am55 °FPartly cloudy.No wind94%29.93 "Hg10 mi
5:35 am55 °FMostly cloudy.No wind94%29.93 "Hg10 mi
5:15 am55 °FMostly cloudy.No wind94%29.94 "Hg10 mi
4:55 am55 °FMostly cloudy.No wind94%29.93 "Hg10 mi
4:35 am55 °FMostly cloudy.No wind94%29.93 "Hg10 mi
4:15 am55 °FOvercast.No wind94%29.94 "Hg10 mi
3:55 am55 °FOvercast.No wind94%29.96 "Hg10 mi
3:35 am55 °FPassing clouds.No wind94%29.96 "Hg10 mi
3:15 am55 °FPassing clouds.No wind94%29.97 "Hg10 mi
2:55 am55 °FPassing clouds.3 mph94%29.96 "Hg10 mi
2:35 am55 °FPartly cloudy.No wind94%29.98 "Hg10 mi
2:15 am55 °FPassing clouds.No wind94%29.99 "Hg10 mi
1:55 am59 °FOvercast.No wind82%30.00 "Hg10 mi
1:35 am59 °FOvercast.No wind77%30.00 "Hg10 mi
1:15 am59 °FMostly cloudy.3 mph77%30.00 "Hg10 mi
12:55 am59 °FOvercast.5 mph82%30.01 "Hg10 mi
12:35 am59 °FOvercast.3 mph77%30.01 "Hg10 mi
12:15 am59 °FOvercast.No wind77%30.01 "Hg10 mi
11:55 pm
Mon, Oct 21
59 °FOvercast.6 mph77%30.01 "Hg10 mi
11:35 pm59 °FOvercast.6 mph77%30.01 "Hg10 mi
11:15 pm61 °FOvercast.3 mph77%30.02 "Hg10 mi
Weather by CustomWeather, © 2019

See weather overview